Regional Weather Roundup
Issued by NWS Albany, NY

Home | Current Version | Previous Version | Text Only | Print | Product List | Glossary On
Versions: 1 2 3 4 5 6 7 8 9 10 11 12 13 14 15 16 17 18 19 20 21 22 23 24 25 26 27 28 29 30 31 32 33 34 35 36 37 38 39 40 41 42 43 44 45 46 47 48 49 50
000
ASUS41 KALY 011610
RWRALY

NEW YORK STATE HOURLY WEATHER ROUNDUP
NATIONAL WEATHER SERVICE ALBANY NY
1200 PM EDT TUE SEP 01 2015

NOTE: "FAIR" INDICATES FEW OR NO CLOUDS BELOW 12,000 FEET WITH NO
SIGNIFICANT WEATHER AND/OR NO OBSTRUCTIONS TO VISIBILITY.

NYZ032-033-038>043-046>054-057>066-NYZ062>081-011700-
EAST


CITY           SKY/WX    TMP DP  RH WIND       PRES   REMARKS
ALBANY         MOSUNNY   81  64  56 VRB5      30.07F
GLENS FALLS    SUNNY     78  63  59 VRB5      30.06F
POUGHKEEPSIE   MOSUNNY   83  63  50 N5        30.06F
NEWBURGH       MOSUNNY   81  66  61 N8        30.09F
MONTGOMERY     SUNNY     82  64  54 N7        30.08S
WHITE PLAINS   MOSUNNY   84  60  44 E7        30.06F
ISLIP          MOSUNNY   85  62  46 N10       30.03F
NEW YORK CITY  MOSUNNY   83  62  49 E9        30.05F
CENTRAL PARK   MOSUNNY   84  63  49 VRB5      30.08F
$$

NYZ005>009-017-018-044>046-055-056-011700-
CENTRAL


CITY           SKY/WX    TMP DP  RH WIND       PRES   REMARKS
FULTON         CLOUDY    72  68  87 SW7       30.10S FOG
SYRACUSE       CLOUDY    74  69  85 SW8       30.09F HAZE
ROME           CLOUDY    73  66  78 W6        30.11F
ELMIRA         SUNNY     76  68  76 SW9       30.11F
BINGHAMTON     CLOUDY    73  67  81 NE3       30.14S
MONTICELLO     PTSUNNY   75  61  60 N3        30.13F
$$

NYZ026>034-041>043-011700-
NORTH


CITY           SKY/WX    TMP DP  RH WIND       PRES   REMARKS
WATERTOWN      PTSUNNY   77  68  73 SW8       30.06F HAZE
FORT DRUM      NOT AVBL
MASSENA        SUNNY     76  66  71 VRB3      30.06F
SARANAC LAKE   SUNNY     75  59  57 SW6       30.09F
PLATTSBURGH    SUNNY     73  64  73 SE7       30.06F
$$

NYZ001>004-010>016-019>021-011700-
WEST


CITY           SKY/WX    TMP DP  RH WIND       PRES   REMARKS
NIAGARA FALLS  MOSUNNY   77  66  68 W6        30.09F
BUFFALO        MOSUNNY   77  67  71 SW9       30.10F
DUNKIRK        SUNNY     79  68  69 VRB5      30.11F
JAMESTOWN      PTSUNNY   73  64  73 CALM      30.16S
WELLSVILLE     SUNNY     78  62  57 CALM      30.18F
ROCHESTER      PTSUNNY   78  67  68 VRB5      30.10F
PENN YAN       MOSUNNY   77  67  71 CALM      30.12F
$$

             KEY
       WCI = WIND CHILL INDEX
       VSB = VISIBILITY
       HX  = HEAT INDEX
$$



USA.gov is the U.S. government's official web portal to all federal, state and local government web resources and services.